User: anonymous   Login
Location: Carnières
(50.1682°N, 3.3474°E)
Time: 14:39:56
(UTC+00:00)
Language:

Meteor 1-4 Rocket - Orbit

View from above orbital plane
View from above orbital plane
View from above satellite
View from above satellite

Ground track
Ground track

The orbit data is extracted from the following two-line orbital elements,

1 04394U 70037B   24195.95863964  .00070109  00000-0  58878-3 0  9994
2 04394  81.2259 191.1672 0016839 204.1838 155.8631 15.69455420961432
Epoch (UTC): 13 July 2024 23:00:26
Eccentricity: 0.0016839
inclination: 81.2259°
perigee height: 349 km
apogee height: 372 km
right ascension of ascending node: 191.1672°
argument of perigee: 204.1838°
revolutions per day: 15.69455420
mean anomaly at epoch: 155.8631°
orbit number at epoch: 96143

The dashed part of the orbit path shows where the satellite is in the earth's shadow,  

DLR